Year,Month,Day,Hour,Minute,Value (Times are PST for temperature in C)
2007,04,23,00,00,7.50
2007,04,23,00,01,7.50
2007,04,23,00,02,7.50
2007,04,23,00,03,7.40
2007,04,23,00,04,7.40
2007,04,23,00,05,7.40
2007,04,23,00,06,7.40
2007,04,23,00,07,7.30
2007,04,23,00,08,7.30
2007,04,23,00,09,7.30
2007,04,23,00,10,7.30
2007,04,23,00,11,7.30
2007,04,23,00,12,7.30
2007,04,23,00,13,7.30
2007,04,23,00,14,7.30
2007,04,23,00,15,7.30
2007,04,23,00,16,7.30
2007,04,23,00,17,7.30
2007,04,23,00,18,7.30
2007,04,23,00,19,7.20
2007,04,23,00,20,7.20
2007,04,23,00,21,7.20
2007,04,23,00,22,7.20
2007,04,23,00,23,7.20
2007,04,23,00,24,7.20
2007,04,23,00,25,7.20
2007,04,23,00,26,7.20
2007,04,23,00,27,7.20
2007,04,23,00,28,7.20
2007,04,23,00,29,7.20
2007,04,23,00,30,7.10
2007,04,23,00,31,7.10
2007,04,23,00,32,7.10
2007,04,23,00,33,7.10
2007,04,23,00,34,7.00
2007,04,23,00,35,7.00
2007,04,23,00,36,7.00
2007,04,23,00,37,7.00
2007,04,23,00,38,7.00
2007,04,23,00,39,7.00
2007,04,23,00,40,7.00
2007,04,23,00,41,6.90
2007,04,23,00,42,6.90
2007,04,23,00,43,6.90
2007,04,23,00,44,6.90
2007,04,23,00,45,6.80
2007,04,23,00,46,6.80
2007,04,23,00,47,6.80
2007,04,23,00,48,6.80
2007,04,23,00,49,6.80
2007,04,23,00,50,6.80
2007,04,23,00,51,6.80
2007,04,23,00,52,6.80
2007,04,23,00,53,6.80
2007,04,23,00,54,6.80
2007,04,23,00,55,6.80
2007,04,23,00,56,6.80
2007,04,23,00,57,6.80
2007,04,23,00,58,6.80
2007,04,23,00,59,6.80
2007,04,23,01,00,6.80
2007,04,23,01,01,6.80
2007,04,23,01,02,6.80
2007,04,23,01,03,6.80
2007,04,23,01,04,6.80
2007,04,23,01,05,6.80
2007,04,23,01,06,6.80
2007,04,23,01,07,6.80
2007,04,23,01,08,6.80
2007,04,23,01,09,6.70
2007,04,23,01,10,6.70
2007,04,23,01,11,6.70
2007,04,23,01,12,6.60
2007,04,23,01,13,6.60
2007,04,23,01,14,6.50
2007,04,23,01,15,6.40
2007,04,23,01,16,6.40
2007,04,23,01,17,6.30
2007,04,23,01,18,6.30
2007,04,23,01,19,6.30
2007,04,23,01,20,6.20
2007,04,23,01,21,6.20
2007,04,23,01,22,6.20
2007,04,23,01,23,6.20
2007,04,23,01,24,6.30
2007,04,23,01,25,6.30
2007,04,23,01,26,6.30
2007,04,23,01,27,6.40
2007,04,23,01,28,6.40
2007,04,23,01,29,6.40
2007,04,23,01,30,6.40
2007,04,23,01,31,6.40
2007,04,23,01,32,6.30
2007,04,23,01,33,6.30
2007,04,23,01,34,6.30
2007,04,23,01,35,6.30
2007,04,23,01,36,6.20
2007,04,23,01,37,6.20
2007,04,23,01,38,6.20
2007,04,23,01,39,6.20
2007,04,23,01,40,6.20
2007,04,23,01,41,6.20
2007,04,23,01,42,6.20
2007,04,23,01,43,6.20
2007,04,23,01,44,6.20
2007,04,23,01,45,6.20
2007,04,23,01,46,6.20
2007,04,23,01,47,6.20
2007,04,23,01,48,6.20
2007,04,23,01,49,6.20
2007,04,23,01,50,6.10
2007,04,23,01,51,6.10
2007,04,23,01,52,6.10
2007,04,23,01,53,6.10
2007,04,23,01,54,6.10
2007,04,23,01,55,6.00
2007,04,23,01,56,6.00
2007,04,23,01,57,6.00
2007,04,23,01,58,6.00
2007,04,23,01,59,5.90
2007,04,23,02,00,5.90
2007,04,23,02,01,5.90
2007,04,23,02,02,5.90
2007,04,23,02,03,5.90
2007,04,23,02,04,5.80
2007,04,23,02,05,5.80
2007,04,23,02,06,5.80
2007,04,23,02,07,5.80
2007,04,23,02,08,5.70
2007,04,23,02,09,5.70
2007,04,23,02,10,5.70
2007,04,23,02,11,5.70
2007,04,23,02,12,5.70
2007,04,23,02,13,5.70
2007,04,23,02,14,5.70
2007,04,23,02,15,5.70
2007,04,23,02,16,5.70
2007,04,23,02,17,5.60
2007,04,23,02,18,5.60
2007,04,23,02,19,5.60
2007,04,23,02,20,5.60
2007,04,23,02,21,5.60
2007,04,23,02,22,5.60
2007,04,23,02,23,5.60
2007,04,23,02,24,5.70
2007,04,23,02,25,5.70
2007,04,23,02,26,5.70
2007,04,23,02,27,5.70
2007,04,23,02,28,5.70
2007,04,23,02,29,5.70
2007,04,23,02,30,5.70
2007,04,23,02,31,5.70
2007,04,23,02,32,5.70
2007,04,23,02,33,5.70
2007,04,23,02,34,5.70
2007,04,23,02,35,5.70
2007,04,23,02,36,5.70
2007,04,23,02,37,5.70
2007,04,23,02,38,5.70
2007,04,23,02,39,5.70
2007,04,23,02,40,5.70
2007,04,23,02,41,5.70
2007,04,23,02,42,5.70
2007,04,23,02,43,5.70
2007,04,23,02,44,5.70
2007,04,23,02,45,5.70
2007,04,23,02,46,5.70
2007,04,23,02,47,5.70
2007,04,23,02,48,5.70
2007,04,23,02,49,5.70
2007,04,23,02,50,5.70
2007,04,23,02,51,5.70
2007,04,23,02,52,5.70
2007,04,23,02,53,5.60
2007,04,23,02,54,5.60
2007,04,23,02,55,5.60
2007,04,23,02,56,5.50
2007,04,23,02,57,5.50
2007,04,23,02,58,5.50
2007,04,23,02,59,5.50
2007,04,23,03,00,5.40
2007,04,23,03,01,5.40
2007,04,23,03,02,5.40
2007,04,23,03,03,5.40
2007,04,23,03,04,5.40
2007,04,23,03,05,5.40
2007,04,23,03,06,5.50
2007,04,23,03,07,5.50
2007,04,23,03,08,5.50
2007,04,23,03,09,5.50
2007,04,23,03,10,5.60
2007,04,23,03,11,5.60
2007,04,23,03,12,5.50
2007,04,23,03,13,5.50
2007,04,23,03,14,5.50
2007,04,23,03,15,5.40
2007,04,23,03,16,5.40
2007,04,23,03,17,5.40
2007,04,23,03,18,5.30
2007,04,23,03,19,5.30
2007,04,23,03,20,5.30
2007,04,23,03,21,5.30
2007,04,23,03,22,5.30
2007,04,23,03,23,5.30
2007,04,23,03,24,5.30
2007,04,23,03,25,5.30
2007,04,23,03,26,5.30
2007,04,23,03,27,5.30
2007,04,23,03,28,5.20
2007,04,23,03,29,5.20
2007,04,23,03,30,5.20
2007,04,23,03,31,5.10
2007,04,23,03,32,5.10
2007,04,23,03,33,5.10
2007,04,23,03,34,5.10
2007,04,23,03,35,5.10
2007,04,23,03,36,5.10
2007,04,23,03,37,5.00
2007,04,23,03,38,4.90
2007,04,23,03,39,4.90
2007,04,23,03,40,4.90
2007,04,23,03,41,4.90
2007,04,23,03,42,4.90
2007,04,23,03,43,4.90
2007,04,23,03,44,5.10
2007,04,23,03,45,5.10
2007,04,23,03,46,5.20
2007,04,23,03,47,5.20
2007,04,23,03,48,5.30
2007,04,23,03,49,5.30
2007,04,23,03,50,5.30
2007,04,23,03,51,5.30
2007,04,23,03,52,5.30
2007,04,23,03,53,5.30
2007,04,23,03,54,5.30
2007,04,23,03,55,5.30
2007,04,23,03,56,5.30
2007,04,23,03,57,5.30
2007,04,23,03,58,5.20
2007,04,23,03,59,5.20
2007,04,23,04,00,5.20
2007,04,23,04,01,5.20
2007,04,23,04,02,5.10
2007,04,23,04,03,5.10
2007,04,23,04,04,5.10
2007,04,23,04,05,5.10
2007,04,23,04,06,5.10
2007,04,23,04,07,5.10
2007,04,23,04,08,5.00
2007,04,23,04,09,4.90
2007,04,23,04,10,4.90
2007,04,23,04,11,4.90
2007,04,23,04,12,4.90
2007,04,23,04,13,4.80
2007,04,23,04,14,4.80
2007,04,23,04,15,4.80
2007,04,23,04,16,4.70
2007,04,23,04,17,4.70
2007,04,23,04,18,4.70
2007,04,23,04,19,4.70
2007,04,23,04,20,4.70
2007,04,23,04,21,4.60
2007,04,23,04,22,4.60
2007,04,23,04,23,4.60
2007,04,23,04,24,4.50
2007,04,23,04,25,4.50
2007,04,23,04,26,4.50
2007,04,23,04,27,4.40
2007,04,23,04,28,4.40
2007,04,23,04,29,4.40
2007,04,23,04,30,4.30
2007,04,23,04,31,4.30
2007,04,23,04,32,4.30
2007,04,23,04,33,4.30
2007,04,23,04,34,4.20
2007,04,23,04,35,4.20
2007,04,23,04,36,4.20
2007,04,23,04,37,4.20
2007,04,23,04,38,4.20
2007,04,23,04,39,4.20
2007,04,23,04,40,4.20
2007,04,23,04,41,4.20
2007,04,23,04,42,4.20
2007,04,23,04,43,4.20
2007,04,23,04,44,4.20
2007,04,23,04,45,4.20
2007,04,23,04,46,4.20
2007,04,23,04,47,4.20
2007,04,23,04,48,4.20
2007,04,23,04,49,4.20
2007,04,23,04,50,4.20
2007,04,23,04,51,4.20
2007,04,23,04,52,4.20
2007,04,23,04,53,4.20
2007,04,23,04,54,4.20
2007,04,23,04,55,4.20
2007,04,23,04,56,4.20
2007,04,23,04,57,4.20
2007,04,23,04,58,4.20
2007,04,23,04,59,4.10
2007,04,23,05,00,4.00
2007,04,23,05,01,4.00
2007,04,23,05,02,4.00
2007,04,23,05,03,4.00
2007,04,23,05,04,4.10
2007,04,23,05,05,4.10
2007,04,23,05,06,4.10
2007,04,23,05,07,4.20
2007,04,23,05,08,4.20
2007,04,23,05,09,4.20
2007,04,23,05,10,4.20
2007,04,23,05,11,4.20
2007,04,23,05,12,4.30
2007,04,23,05,13,4.30
2007,04,23,05,14,4.40
2007,04,23,05,15,4.40
2007,04,23,05,16,4.40
2007,04,23,05,17,4.40
2007,04,23,05,18,4.40
2007,04,23,05,19,4.40
2007,04,23,05,20,4.40
2007,04,23,05,21,4.40
2007,04,23,05,22,4.30
2007,04,23,05,23,4.30
2007,04,23,05,24,4.30
2007,04,23,05,25,4.20
2007,04,23,05,26,4.20
2007,04,23,05,27,4.20
2007,04,23,05,28,4.20
2007,04,23,05,29,4.20
2007,04,23,05,30,4.20
2007,04,23,05,31,4.20
2007,04,23,05,32,4.20
2007,04,23,05,33,4.20
2007,04,23,05,34,4.20
2007,04,23,05,35,4.10
2007,04,23,05,36,4.10
2007,04,23,05,37,4.10
2007,04,23,05,38,4.10
2007,04,23,05,39,4.10
2007,04,23,05,40,4.10
2007,04,23,05,41,4.10
2007,04,23,05,42,4.10
2007,04,23,05,43,4.10
2007,04,23,05,44,4.10
2007,04,23,05,45,4.10
2007,04,23,05,46,4.10
2007,04,23,05,47,4.10
2007,04,23,05,48,4.10
2007,04,23,05,49,4.20
2007,04,23,05,50,4.20
2007,04,23,05,51,4.20
2007,04,23,05,52,4.20
2007,04,23,05,53,4.20
2007,04,23,05,54,4.20
2007,04,23,05,55,4.20
2007,04,23,05,56,4.20
2007,04,23,05,57,4.10
2007,04,23,05,58,4.10
2007,04,23,05,59,4.10
2007,04,23,06,00,4.10
2007,04,23,06,01,4.00
2007,04,23,06,02,4.00
2007,04,23,06,03,4.00
2007,04,23,06,04,3.90
2007,04,23,06,05,3.90
2007,04,23,06,06,3.90
2007,04,23,06,07,3.90
2007,04,23,06,08,3.80
2007,04,23,06,09,3.80
2007,04,23,06,10,3.80
2007,04,23,06,11,3.80
2007,04,23,06,12,3.80
2007,04,23,06,13,3.80
2007,04,23,06,14,3.80
2007,04,23,06,15,3.80
2007,04,23,06,16,3.80
2007,04,23,06,17,3.80
2007,04,23,06,18,3.80
2007,04,23,06,19,3.80
2007,04,23,06,20,3.80
2007,04,23,06,21,3.90
2007,04,23,06,22,3.90
2007,04,23,06,23,3.90
2007,04,23,06,24,4.00
2007,04,23,06,25,4.00
2007,04,23,06,26,4.00
2007,04,23,06,27,4.00
2007,04,23,06,28,4.00
2007,04,23,06,29,4.10
2007,04,23,06,30,4.10
2007,04,23,06,31,4.10
2007,04,23,06,32,4.10
2007,04,23,06,33,4.20
2007,04,23,06,34,4.20
2007,04,23,06,35,4.20
2007,04,23,06,36,4.30
2007,04,23,06,37,4.30
2007,04,23,06,38,4.40
2007,04,23,06,39,4.40
2007,04,23,06,40,4.40
2007,04,23,06,41,4.50
2007,04,23,06,42,4.50
2007,04,23,06,43,4.50
2007,04,23,06,44,4.50
2007,04,23,06,45,4.60
2007,04,23,06,46,4.60
2007,04,23,06,47,4.60
2007,04,23,06,48,4.60
2007,04,23,06,49,4.70
2007,04,23,06,50,4.80
2007,04,23,06,51,4.90
2007,04,23,06,52,4.90
2007,04,23,06,53,5.10
2007,04,23,06,54,5.10
2007,04,23,06,55,5.10
2007,04,23,06,56,5.20
2007,04,23,06,57,5.30
2007,04,23,06,58,5.30
2007,04,23,06,59,5.30
2007,04,23,07,00,5.30
2007,04,23,07,01,5.30
2007,04,23,07,02,5.30
2007,04,23,07,03,5.30
2007,04,23,07,04,5.30
2007,04,23,07,05,5.30
2007,04,23,07,06,5.30
2007,04,23,07,07,5.40
2007,04,23,07,08,5.40
2007,04,23,07,09,5.40
2007,04,23,07,10,5.50
2007,04,23,07,11,5.60
2007,04,23,07,12,5.70
2007,04,23,07,13,5.70
2007,04,23,07,14,5.80
2007,04,23,07,15,5.90
2007,04,23,07,16,6.00
2007,04,23,07,17,6.00
2007,04,23,07,18,6.10
2007,04,23,07,19,6.20
2007,04,23,07,20,6.20
2007,04,23,07,21,6.20
2007,04,23,07,22,6.30
2007,04,23,07,23,6.30
2007,04,23,07,24,6.30
2007,04,23,07,25,6.30
2007,04,23,07,26,6.40
2007,04,23,07,27,6.40
2007,04,23,07,28,6.50
2007,04,23,07,29,6.60
2007,04,23,07,30,6.70
2007,04,23,07,31,6.80
2007,04,23,07,32,6.90
2007,04,23,07,33,7.10
2007,04,23,07,34,7.20
2007,04,23,07,35,7.40
2007,04,23,07,36,7.50
2007,04,23,07,37,7.70
2007,04,23,07,38,7.80
2007,04,23,07,39,7.90
2007,04,23,07,40,8.00
2007,04,23,07,41,8.10
2007,04,23,07,42,8.20
2007,04,23,07,43,8.20
2007,04,23,07,44,8.30
2007,04,23,07,45,8.40
2007,04,23,07,46,8.40
2007,04,23,07,47,8.50
2007,04,23,07,48,8.50
2007,04,23,07,49,8.50
2007,04,23,07,50,8.50
2007,04,23,07,51,8.60
2007,04,23,07,52,8.60
2007,04,23,07,53,8.60
2007,04,23,07,54,8.60
2007,04,23,07,55,8.60
2007,04,23,07,56,8.70
2007,04,23,07,57,8.70
2007,04,23,07,58,8.90
2007,04,23,07,59,8.90
2007,04,23,08,00,9.00
2007,04,23,08,01,9.10
2007,04,23,08,02,9.10
2007,04,23,08,03,9.10
2007,04,23,08,04,9.10
2007,04,23,08,05,9.20
2007,04,23,08,06,9.20
2007,04,23,08,07,9.30
2007,04,23,08,08,9.30
2007,04,23,08,09,9.40
2007,04,23,08,10,9.50
2007,04,23,08,11,9.50
2007,04,23,08,12,9.60
2007,04,23,08,13,9.60
2007,04,23,08,14,9.80
2007,04,23,08,15,9.90
2007,04,23,08,16,10.10
2007,04,23,08,17,10.10
2007,04,23,08,18,10.20
2007,04,23,08,19,10.30
2007,04,23,08,20,10.40
2007,04,23,08,21,10.40
2007,04,23,08,22,10.60
2007,04,23,08,23,10.70
2007,04,23,08,24,10.80
2007,04,23,08,25,10.90
2007,04,23,08,26,10.90
2007,04,23,08,27,10.80
2007,04,23,08,28,10.80
2007,04,23,08,29,10.80
2007,04,23,08,30,10.80
2007,04,23,08,31,10.70
2007,04,23,08,32,10.80
2007,04,23,08,33,10.70
2007,04,23,08,34,10.70
2007,04,23,08,35,10.70
2007,04,23,08,36,10.80
2007,04,23,08,37,10.80
2007,04,23,08,38,10.80
2007,04,23,08,39,10.80
2007,04,23,08,40,10.80
2007,04,23,08,41,10.80
2007,04,23,08,42,10.90
2007,04,23,08,43,10.90
2007,04,23,08,44,11.00
2007,04,23,08,45,11.10
2007,04,23,08,46,11.20
2007,04,23,08,47,11.20
2007,04,23,08,48,11.30
2007,04,23,08,49,11.40
2007,04,23,08,50,11.40
2007,04,23,08,51,11.40
2007,04,23,08,52,11.40
2007,04,23,08,53,11.40
2007,04,23,08,54,11.30
2007,04,23,08,55,11.30
2007,04,23,08,56,11.30
2007,04,23,08,57,11.30
2007,04,23,08,58,11.30
2007,04,23,08,59,11.30
2007,04,23,09,00,11.30
2007,04,23,09,01,11.30
2007,04,23,09,02,11.30
2007,04,23,09,03,11.30
2007,04,23,09,04,11.20
2007,04,23,09,05,11.20
2007,04,23,09,06,11.10
2007,04,23,09,07,11.10
2007,04,23,09,08,11.10
2007,04,23,09,09,11.10
2007,04,23,09,10,11.10
2007,04,23,09,11,11.10
2007,04,23,09,12,11.10
2007,04,23,09,13,11.20
2007,04,23,09,14,11.30
2007,04,23,09,15,11.40
2007,04,23,09,16,11.50
2007,04,23,09,17,11.60
2007,04,23,09,18,11.80
2007,04,23,09,19,11.90
2007,04,23,09,20,12.10
2007,04,23,09,21,12.20
2007,04,23,09,22,12.30
2007,04,23,09,23,12.40
2007,04,23,09,24,12.60
2007,04,23,09,25,12.70
2007,04,23,09,26,12.90
2007,04,23,09,27,13.00
2007,04,23,09,28,13.20
2007,04,23,09,29,13.20
2007,04,23,09,30,13.30
2007,04,23,09,31,13.20
2007,04,23,09,32,13.20
2007,04,23,09,33,13.20
2007,04,23,09,34,13.30
2007,04,23,09,35,13.30
2007,04,23,09,36,13.20
2007,04,23,09,37,13.10
2007,04,23,09,38,13.00
2007,04,23,09,39,13.00
2007,04,23,09,40,12.90
2007,04,23,09,41,13.00
2007,04,23,09,42,13.10
2007,04,23,09,43,13.10
2007,04,23,09,44,13.20
2007,04,23,09,45,13.30
2007,04,23,09,46,13.50
2007,04,23,09,47,13.50
2007,04,23,09,48,13.60
2007,04,23,09,49,13.70
2007,04,23,09,50,13.70
2007,04,23,09,51,13.70
2007,04,23,09,52,13.80
2007,04,23,09,53,13.90
2007,04,23,09,54,13.90
2007,04,23,09,55,13.70
2007,04,23,09,56,13.60
2007,04,23,09,57,13.40
2007,04,23,09,58,13.20
2007,04,23,09,59,13.10
2007,04,23,10,00,13.00
2007,04,23,10,01,13.00
2007,04,23,10,02,12.90
2007,04,23,10,03,12.80
2007,04,23,10,04,13.00
2007,04,23,10,05,13.10
2007,04,23,10,06,13.20
2007,04,23,10,07,13.30
2007,04,23,10,08,13.40
2007,04,23,10,09,13.60
2007,04,23,10,10,13.70
2007,04,23,10,11,13.80
2007,04,23,10,12,13.90
2007,04,23,10,13,14.00
2007,04,23,10,14,14.10
2007,04,23,10,15,14.20
2007,04,23,10,16,14.20
2007,04,23,10,17,14.10
2007,04,23,10,18,14.10
2007,04,23,10,19,14.10
2007,04,23,10,20,14.00
2007,04,23,10,21,14.00
2007,04,23,10,22,13.90
2007,04,23,10,23,13.80
2007,04,23,10,24,13.80
2007,04,23,10,25,13.80
2007,04,23,10,26,13.90
2007,04,23,10,27,13.90
2007,04,23,10,28,13.90
2007,04,23,10,29,13.90
2007,04,23,10,30,13.90
2007,04,23,10,31,14.00
2007,04,23,10,32,14.00
2007,04,23,10,33,14.00
2007,04,23,10,34,13.90
2007,04,23,10,35,13.80
2007,04,23,10,36,13.70
2007,04,23,10,37,13.70
2007,04,23,10,38,13.70
2007,04,23,10,39,13.70
2007,04,23,10,40,13.70
2007,04,23,10,41,13.70
2007,04,23,10,42,13.60
2007,04,23,10,43,13.60
2007,04,23,10,44,13.60
2007,04,23,10,45,13.50
2007,04,23,10,46,13.60
2007,04,23,10,47,13.60
2007,04,23,10,48,13.70
2007,04,23,10,49,13.70
2007,04,23,10,50,13.80
2007,04,23,10,51,13.90
2007,04,23,10,52,13.90
2007,04,23,10,53,13.80
2007,04,23,10,54,13.70
2007,04,23,10,55,13.70
2007,04,23,10,56,13.60
2007,04,23,10,57,13.50
2007,04,23,10,58,13.30
2007,04,23,10,59,13.30
2007,04,23,11,00,13.30
2007,04,23,11,01,13.50
2007,04,23,11,02,13.60
2007,04,23,11,03,13.70
2007,04,23,11,04,13.70
2007,04,23,11,05,13.90
2007,04,23,11,06,14.10
2007,04,23,11,07,14.00
2007,04,23,11,08,13.80
2007,04,23,11,09,13.70
2007,04,23,11,10,13.70
2007,04,23,11,11,13.70
2007,04,23,11,12,13.80
2007,04,23,11,13,13.80
2007,04,23,11,14,13.80
2007,04,23,11,15,13.70
2007,04,23,11,16,13.70
2007,04,23,11,17,13.80
2007,04,23,11,18,13.90
2007,04,23,11,19,13.90
2007,04,23,11,20,14.00
2007,04,23,11,21,14.00
2007,04,23,11,22,13.90
2007,04,23,11,23,13.90
2007,04,23,11,24,13.90
2007,04,23,11,25,13.90
2007,04,23,11,26,14.00
2007,04,23,11,27,14.20
2007,04,23,11,28,14.20
2007,04,23,11,29,14.20
2007,04,23,11,30,14.20
2007,04,23,11,31,14.20
2007,04,23,11,32,14.20
2007,04,23,11,33,14.30
2007,04,23,11,34,14.30
2007,04,23,11,35,14.20
2007,04,23,11,36,14.10
2007,04,23,11,37,14.00
2007,04,23,11,38,14.10
2007,04,23,11,39,14.00
2007,04,23,11,40,14.00
2007,04,23,11,41,14.00
2007,04,23,11,42,14.10
2007,04,23,11,43,14.20
2007,04,23,11,44,14.10
2007,04,23,11,45,14.00
2007,04,23,11,46,14.00
2007,04,23,11,47,13.90
2007,04,23,11,48,13.90
2007,04,23,11,49,13.80
2007,04,23,11,50,13.70
2007,04,23,11,51,13.70
2007,04,23,11,52,13.60
2007,04,23,11,53,13.50
2007,04,23,11,54,13.40
2007,04,23,11,55,13.30
2007,04,23,11,56,13.30
2007,04,23,11,57,13.30
2007,04,23,11,58,13.30
2007,04,23,11,59,13.40
2007,04,23,12,00,13.50
2007,04,23,12,01,13.60
2007,04,23,12,02,13.70
2007,04,23,12,03,13.80
2007,04,23,12,04,13.80
2007,04,23,12,05,13.90
2007,04,23,12,06,13.90
2007,04,23,12,07,13.90
2007,04,23,12,08,13.90
2007,04,23,12,09,14.00
2007,04,23,12,10,14.00
2007,04,23,12,11,13.90
2007,04,23,12,12,13.80
2007,04,23,12,13,13.80
2007,04,23,12,14,13.70
2007,04,23,12,15,13.60
2007,04,23,12,16,13.70
2007,04,23,12,17,13.70
2007,04,23,12,18,13.80
2007,04,23,12,19,13.90
2007,04,23,12,20,14.00
2007,04,23,12,21,14.10
2007,04,23,12,22,14.20
2007,04,23,12,23,14.30
2007,04,23,12,24,14.30
2007,04,23,12,25,14.20
2007,04,23,12,26,14.20
2007,04,23,12,27,14.20
2007,04,23,12,28,14.30
2007,04,23,12,29,14.40
2007,04,23,12,30,14.40
2007,04,23,12,31,14.30
2007,04,23,12,32,14.30
2007,04,23,12,33,14.40
2007,04,23,12,34,14.50
2007,04,23,12,35,14.60
2007,04,23,12,36,14.60
2007,04,23,12,37,14.50
2007,04,23,12,38,14.40
2007,04,23,12,39,14.50
2007,04,23,12,40,14.50
2007,04,23,12,41,14.40
2007,04,23,12,42,14.40
2007,04,23,12,43,14.40
2007,04,23,12,44,14.30
2007,04,23,12,45,14.40
2007,04,23,12,46,14.50
2007,04,23,12,47,14.50
2007,04,23,12,48,14.40
2007,04,23,12,49,14.20
2007,04,23,12,50,14.10
2007,04,23,12,51,14.00
2007,04,23,12,52,13.90
2007,04,23,12,53,13.90
2007,04,23,12,54,14.00
2007,04,23,12,55,14.00
2007,04,23,12,56,13.90
2007,04,23,12,57,13.70
2007,04,23,12,58,13.70
2007,04,23,12,59,13.70
2007,04,23,13,00,13.70
2007,04,23,13,01,13.70
2007,04,23,13,02,13.70
2007,04,23,13,03,13.60
2007,04,23,13,04,13.60
2007,04,23,13,05,13.60
2007,04,23,13,06,13.70
2007,04,23,13,07,14.00
2007,04,23,13,08,14.10
2007,04,23,13,09,14.20
2007,04,23,13,10,14.20
2007,04,23,13,11,14.20
2007,04,23,13,12,14.10
2007,04,23,13,13,14.00
2007,04,23,13,14,14.00
2007,04,23,13,15,14.00
2007,04,23,13,16,14.10
2007,04,23,13,17,14.10
2007,04,23,13,18,14.00
2007,04,23,13,19,13.90
2007,04,23,13,20,13.90
2007,04,23,13,21,13.90
2007,04,23,13,22,14.10
2007,04,23,13,23,14.20
2007,04,23,13,24,14.20
2007,04,23,13,25,14.30
2007,04,23,13,26,14.30
2007,04,23,13,27,14.30
2007,04,23,13,28,14.20
2007,04,23,13,29,14.10
2007,04,23,13,30,13.80
2007,04,23,13,31,13.70
2007,04,23,13,32,13.70
2007,04,23,13,33,13.70
2007,04,23,13,34,13.70
2007,04,23,13,35,13.70
2007,04,23,13,36,13.60
2007,04,23,13,37,13.60
2007,04,23,13,38,13.60
2007,04,23,13,39,13.70
2007,04,23,13,40,13.80
2007,04,23,13,41,14.00
2007,04,23,13,42,14.20
2007,04,23,13,43,14.20
2007,04,23,13,44,14.40
2007,04,23,13,45,14.40
2007,04,23,13,46,14.50
2007,04,23,13,47,14.60
2007,04,23,13,48,14.70
2007,04,23,13,49,14.60
2007,04,23,13,50,14.60
2007,04,23,13,51,14.60
2007,04,23,13,52,14.60
2007,04,23,13,53,14.70
2007,04,23,13,54,14.60
2007,04,23,13,55,14.50
2007,04,23,13,56,14.50
2007,04,23,13,57,14.50
2007,04,23,13,58,14.50
2007,04,23,13,59,14.50
2007,04,23,14,00,14.60
2007,04,23,14,01,14.60
2007,04,23,14,02,14.50
2007,04,23,14,03,14.50
2007,04,23,14,04,14.50
2007,04,23,14,05,14.50
2007,04,23,14,06,14.60
2007,04,23,14,07,14.60
2007,04,23,14,08,14.80
2007,04,23,14,09,14.90
2007,04,23,14,10,14.90
2007,04,23,14,11,14.90
2007,04,23,14,12,14.80
2007,04,23,14,13,14.80
2007,04,23,14,14,14.80
2007,04,23,14,15,14.80
2007,04,23,14,16,14.70
2007,04,23,14,17,14.60
2007,04,23,14,18,14.50
2007,04,23,14,19,14.40
2007,04,23,14,20,14.20
2007,04,23,14,21,14.10
2007,04,23,14,22,14.10
2007,04,23,14,23,14.20
2007,04,23,14,24,14.20
2007,04,23,14,25,14.30
2007,04,23,14,26,14.50
2007,04,23,14,27,14.60
2007,04,23,14,28,14.70
2007,04,23,14,29,14.80
2007,04,23,14,30,14.90
2007,04,23,14,31,14.90
2007,04,23,14,32,14.80
2007,04,23,14,33,14.70
2007,04,23,14,34,14.60
2007,04,23,14,35,14.60
2007,04,23,14,36,14.60
2007,04,23,14,37,14.80
2007,04,23,14,38,14.90
2007,04,23,14,39,15.00
2007,04,23,14,40,15.00
2007,04,23,14,41,14.90
2007,04,23,14,42,14.80
2007,04,23,14,43,14.80
2007,04,23,14,44,14.80
2007,04,23,14,45,14.70
2007,04,23,14,46,14.70
2007,04,23,14,47,14.60
2007,04,23,14,48,14.50
2007,04,23,14,49,14.60
2007,04,23,14,50,14.60
2007,04,23,14,51,14.60
2007,04,23,14,52,14.70
2007,04,23,14,53,14.80
2007,04,23,14,54,14.90
2007,04,23,14,55,15.10
2007,04,23,14,56,15.10
2007,04,23,14,57,15.20
2007,04,23,14,58,15.10
2007,04,23,14,59,15.10
2007,04,23,15,00,15.20
2007,04,23,15,01,15.30
2007,04,23,15,02,15.30
2007,04,23,15,03,15.30
2007,04,23,15,04,15.30
2007,04,23,15,05,15.10
2007,04,23,15,06,15.00
2007,04,23,15,07,14.90
2007,04,23,15,08,14.80
2007,04,23,15,09,14.70
2007,04,23,15,10,14.60
2007,04,23,15,11,14.40
2007,04,23,15,12,14.30
2007,04,23,15,13,14.10
2007,04,23,15,14,14.10
2007,04,23,15,15,14.00
2007,04,23,15,16,14.00
2007,04,23,15,17,14.20
2007,04,23,15,18,14.20
2007,04,23,15,19,14.40
2007,04,23,15,20,14.40
2007,04,23,15,21,14.30
2007,04,23,15,22,14.30
2007,04,23,15,23,14.40
2007,04,23,15,24,14.50
2007,04,23,15,25,14.60
2007,04,23,15,26,14.70
2007,04,23,15,27,14.70
2007,04,23,15,28,14.80
2007,04,23,15,29,14.70
2007,04,23,15,30,14.70
2007,04,23,15,31,14.70
2007,04,23,15,32,14.80
2007,04,23,15,33,14.70
2007,04,23,15,34,14.80
2007,04,23,15,35,14.80
2007,04,23,15,36,14.80
2007,04,23,15,37,14.80
2007,04,23,15,38,14.80
2007,04,23,15,39,14.70
2007,04,23,15,40,14.70
2007,04,23,15,41,14.60
2007,04,23,15,42,14.50
2007,04,23,15,43,14.50
2007,04,23,15,44,14.50
2007,04,23,15,45,14.40
2007,04,23,15,46,14.50
2007,04,23,15,47,14.50
2007,04,23,15,48,14.40
2007,04,23,15,49,14.40
2007,04,23,15,50,14.50
2007,04,23,15,51,14.60
2007,04,23,15,52,14.80
2007,04,23,15,53,14.90
2007,04,23,15,54,15.00
2007,04,23,15,55,15.10
2007,04,23,15,56,15.00
2007,04,23,15,57,14.90
2007,04,23,15,58,14.90
2007,04,23,15,59,14.80
2007,04,23,16,00,14.80
2007,04,23,16,01,14.80
2007,04,23,16,02,14.80
2007,04,23,16,03,14.80
2007,04,23,16,04,14.70
2007,04,23,16,05,14.60
2007,04,23,16,06,14.50
2007,04,23,16,07,14.50
2007,04,23,16,08,14.40
2007,04,23,16,09,14.30
2007,04,23,16,10,14.20
2007,04,23,16,11,14.30
2007,04,23,16,12,14.30
2007,04,23,16,13,14.30
2007,04,23,16,14,14.30
2007,04,23,16,15,14.10
2007,04,23,16,16,14.10
2007,04,23,16,17,14.20
2007,04,23,16,18,14.20
2007,04,23,16,19,14.20
2007,04,23,16,20,14.20
2007,04,23,16,21,14.30
2007,04,23,16,22,14.30
2007,04,23,16,23,14.30
2007,04,23,16,24,14.20
2007,04,23,16,25,14.10
2007,04,23,16,26,13.90
2007,04,23,16,27,13.90
2007,04,23,16,28,13.90
2007,04,23,16,29,14.00
2007,04,23,16,30,14.00
2007,04,23,16,31,13.90
2007,04,23,16,32,13.90
2007,04,23,16,33,13.80
2007,04,23,16,34,13.80
2007,04,23,16,35,13.70
2007,04,23,16,36,13.70
2007,04,23,16,37,13.70
2007,04,23,16,38,13.70
2007,04,23,16,39,13.70
2007,04,23,16,40,13.60
2007,04,23,16,41,13.60
2007,04,23,16,42,13.60
2007,04,23,16,43,13.60
2007,04,23,16,44,13.60
2007,04,23,16,45,13.70
2007,04,23,16,46,13.70
2007,04,23,16,47,13.70
2007,04,23,16,48,13.70
2007,04,23,16,49,13.60
2007,04,23,16,50,13.60
2007,04,23,16,51,13.50
2007,04,23,16,52,13.50
2007,04,23,16,53,13.50
2007,04,23,16,54,13.40
2007,04,23,16,55,13.40
2007,04,23,16,56,13.50
2007,04,23,16,57,13.50
2007,04,23,16,58,13.60
2007,04,23,16,59,13.60
2007,04,23,17,00,13.70
2007,04,23,17,01,13.70
2007,04,23,17,02,13.70
2007,04,23,17,03,13.70
2007,04,23,17,04,13.70
2007,04,23,17,05,13.70
2007,04,23,17,06,13.60
2007,04,23,17,07,13.60
2007,04,23,17,08,13.60
2007,04,23,17,09,13.60
2007,04,23,17,10,13.50
2007,04,23,17,11,13.50
2007,04,23,17,12,13.30
2007,04,23,17,13,13.30
2007,04,23,17,14,13.30
2007,04,23,17,15,13.30
2007,04,23,17,16,13.30
2007,04,23,17,17,13.20
2007,04,23,17,18,13.20
2007,04,23,17,19,13.20
2007,04,23,17,20,13.20
2007,04,23,17,21,13.30
2007,04,23,17,22,13.30
2007,04,23,17,23,13.30
2007,04,23,17,24,13.30
2007,04,23,17,25,13.30
2007,04,23,17,26,13.30
2007,04,23,17,27,13.30
2007,04,23,17,28,13.30
2007,04,23,17,29,13.30
2007,04,23,17,30,13.40
2007,04,23,17,31,13.50
2007,04,23,17,32,13.60
2007,04,23,17,33,13.70
2007,04,23,17,34,13.70
2007,04,23,17,35,13.80
2007,04,23,17,36,13.90
2007,04,23,17,37,14.00
2007,04,23,17,38,14.10
2007,04,23,17,39,14.10
2007,04,23,17,40,14.10
2007,04,23,17,41,14.10